Capitol Logistics 436


KSLC
Salt Lake City International Airport
Salt Lake City, Utah, US
KSMF
Sacramento International Airport
Sacramento, California, US

Activity Log

Date Flight Route Aircraft Duration
11/12/2019 CPX436 N0447F360 DEZRT1 BAM J32 LLC/N0412F240 ANAHO SLMMR3 B738 1h 36m

Route Details

Aircraft Information
Primary: Boeing 757-200SF
Backup: Boeing 737-800BCF
Route Data
Distance: 462nm
Sched. Duration: 1h 44m
Avg. Duration: 1h 36m (-9m)
Times Flown: 1
Recm'd Route: DEZRT1 BAM LLC ANAHO SLMMR3
Planned Altitude: 36,000ft
Origin Wx: KSLC 060654Z 15019G28KT 10SM SCT140 BKN180 27/03 A2972 RMK AO2 PK WND 15033/0636 SLP995 T02670028 403780200
Dest. Wx: KSMF 060653Z 15015KT 10SM SCT250 14/09 A2975 RMK AO2 SLP072 T01440089
Notes:

Financial History
Total Freight: 40,128lbs
Average Load: 40,128lbs/flt
Fuel Used: 8,632lbs
Avg. Fuel Used: 8,632lbs/flt
Fuel Expense: $7,424
Avg. Fuel Expense: $7,424
Avg. Fuel Cost: $0.86/lbs
Total Gross Income: $56,179
Pilot Pay: $229
Total Expenses: $6,119
Total Revenue: $42,270
Average Revenue: $56,179.20